User: anonymous   Login
Location: Unspecified
(0.0000°N, 0.0000°E)
Time: 05:59:48
(UTC+00:00)
Language:

SR 7A - Orbit

View from above orbital plane
View from above orbital plane
View from above satellite
View from above satellite

Ground track
Ground track

The orbit data is extracted from the following two-line orbital elements,

1 00730U 64001D   18199.57096289 -.00000055  00000-0 -67087-6 0  9991
2 00730  69.9068   1.5962 0012474 154.7998 267.8119 13.95597766657879
Epoch (UTC): 18 July 2018 13:42:11
Eccentricity: 0.0012474
inclination: 69.9068°
perigee height: 900 km
apogee height: 918 km
right ascension of ascending node: 1.5962°
argument of perigee: 154.7998°
revolutions per day: 13.95597766
mean anomaly at epoch: 267.8119°
orbit number at epoch: 65787

The dashed part of the orbit path shows where the satellite is in the earth's shadow,  

DLR